This is the latest recevied weather packets stored in our database for station/object W4MJZ-1. If no packets are shown the sender has not sent any weather packets the latest 1 day(s).
| Time | Temp. | Humidity | Pressure | Rain* | Wind** | Luminosity | Snow |
|---|---|---|---|---|---|---|---|
| 1778002835 | 20.56° C | 55% | 1020 hPa | 0 mm | 1.79 m/s, 283° | - | - |
| 1778002640 | 20.56° C | 55% | 1020 hPa | 0 mm | 1.79 m/s, 283° | - | - |
| 1778002479 | 20° C | 54% | 1019.6 hPa | 0.25 mm | 1.79 m/s, 269° | - | - |
| 1778002340 | 20° C | 54% | 1019.6 hPa | 0.25 mm | 1.79 m/s, 269° | - | - |
| 1778002173 | 20° C | 55% | 1019.6 hPa | 0.25 mm | 1.79 m/s, 270° | - | - |
| 1778002039 | 20° C | 55% | 1019.6 hPa | 0.25 mm | 1.79 m/s, 270° | - | - |
| 1778001951 | 20.56° C | 57% | 1020 hPa | 0.25 mm | 1.79 m/s, 274° | - | - |
| 1778001740 | 20.56° C | 57% | 1020 hPa | 0.25 mm | 1.79 m/s, 274° | - | - |
| 1778001574 | 20.56° C | 59% | 1020 hPa | 0.25 mm | 1.34 m/s, 248° | - | - |
| 1778001439 | 20.56° C | 59% | 1020 hPa | 0.25 mm | 1.34 m/s, 248° | - | - |
| 1778001139 | 19.44° C | 58% | 1020 hPa | 0.25 mm | 1.34 m/s, 276° | - | - |
| 1778000990 | 20° C | 58% | 1020 hPa | 0.25 mm | 0.89 m/s, 313° | - | - |
| 1778000839 | 20° C | 58% | 1020 hPa | 0.25 mm | 0.89 m/s, 313° | - | - |
| 1778000675 | 20° C | 59% | 1020 hPa | 0.25 mm | 0.45 m/s, 343° | - | - |
| 1778000539 | 20° C | 59% | 1020 hPa | 0.25 mm | 0.45 m/s, 343° | - | - |
| 1778000397 | 20° C | 58% | 1020 hPa | 0.25 mm | 0.89 m/s, 308° | - | - |
| 1778000240 | 20° C | 58% | 1020 hPa | 0.25 mm | 0.89 m/s, 308° | - | - |
| 1777999940 | 20° C | 63% | 1020.3 hPa | 0.25 mm | 1.34 m/s, 295° | - | - |
| 1777999781 | 18.89° C | 62% | 1020 hPa | 0.25 mm | 1.34 m/s, 289° | - | - |
| 1777999639 | 18.89° C | 62% | 1020 hPa | 0.25 mm | 1.34 m/s, 289° | - | - |
| 1777999482 | 19.44° C | 64% | 1020 hPa | 0.25 mm | 1.34 m/s, 244° | - | - |
| 1777999341 | 19.44° C | 64% | 1020 hPa | 0.25 mm | 1.34 m/s, 244° | - | - |
| 1777999233 | 19.44° C | 64% | 1020.3 hPa | 0.25 mm | 1.34 m/s, 234° | - | - |
| 1777999039 | 19.44° C | 64% | 1020.3 hPa | 0.25 mm | 1.34 m/s, 234° | - | - |
| 1777998871 | 19.44° C | 61% | 1020.3 hPa | 0 mm | 1.34 m/s, 243° | - | - |
* Rain latest hour (hover to see other rain measurements)
** Current wind speed in m/s (hover to see current wind gust speed)